#timestamp,LO_Frequency,Hit,StdDev 
1558555215.3,286046999.1,N
1558555235.1,286046994.9,Y
1558555255.9,286046996.6,P
1558555275.7,286047000.0,N
1558555295.6,286047000.1,N
1558555315.4,286047000.2,N
1558555335.2,286047000.4,N
1558555355.1,286046997.0,N
1558555356.0,286046997.0,N
1558555375.8,286046996.7,N
1558555395.6,286047000.4,N
1558555415.5,286047001.0,N
1558555435.3,286046998.6,N
1558555455.1,286047002.5,N
1558555475.9,286046999.4,N
1558555495.7,286046998.7,N
1558555515.6,286046998.6,N
1558555535.4,286046998.6,N
1558555555.2,286046995.3,N
1558555575.1,286046997.0,N
1558555576.0,286046997.0,N
1558555595.8,286046998.7,N
1558555615.6,286046999.3,N
1558555635.5,286046997.5,N
1558555655.3,286046996.6,N
1558555675.2,286046999.5,N
1558555695.9,286046999.3,N
1558555715.7,286046998.5,N
1558555735.6,286047002.8,N
1558555755.4,286046999.4,N
1558555775.2,286046997.9,N
1558555795.1,286046996.8,N
1558555796.0,286046996.8,N
1558555815.8,286046999.4,N
1558555835.7,286046998.8,N
1558555855.5,286046997.8,N
1558555875.3,286046997.4,N
1558555895.2,286046999.3,N
1558555915.0,286047000.3,N
1558555915.9,286047000.3,N
1558555935.8,286047002.2,N
1558555955.6,286046999.9,N
1558555975.4,286046999.7,N
1558555995.3,286047000.6,N
1558556015.1,286046999.4,N
1558556035.9,286046996.7,N
1558556055.7,286046995.4,N
1558556075.5,286046995.5,N
1558556095.4,286046996.8,N
1558556115.2,286046998.8,N
1558556165.1,286047000.7,E
1558556175.9,286046999.4,N
1558556195.7,286046999.0,P
1558556215.6,286046997.1,P
1558556235.4,286046998.7,N
1558556255.2,286046998.8,N
1558556275.1,286046999.3,N
1558556276.0,286046999.3,N
1558556295.8,286046999.2,N
1558556315.7,286046996.6,Y
1558556335.5,286046997.1,P
1558556355.3,286046999.6,N
1558556375.2,286047000.5,N
1558556395.9,286046999.9,N
1558556415.7,286046999.4,N
1558556435.6,286047000.6,N
1558556455.4,286046999.8,N
1558556475.2,286047001.5,N
1558556495.1,286047006.0,Y
1558556496.0,286047006.0,P
1558556515.8,286047003.0,N
1558556535.7,286047004.1,N
1558556555.5,286047003.4,N
1558556575.3,286047003.1,N
1558556595.2,286047005.1,N
1558556615.0,286047002.2,N
1558556615.9,286047002.2,N
1558556635.8,286047002.6,N
1558556655.6,286047002.2,N
1558556675.4,286047002.2,N
1558556695.3,286047003.5,N
1558556715.1,286047002.9,N
1558556716.0,286047002.9,N
1558556735.8,286047005.9,Y
1558556755.7,286047002.7,P
1558556775.5,286047002.1,P
1558556795.4,286047002.3,P
1558556815.2,286047002.0,Y
1558556835.0,286047002.8,P
1558556835.9,286047002.8,P
1558556855.8,286047002.3,P
1558556875.6,286047000.5,N
1558556895.4,286046998.5,N
1558556915.3,286047001.2,N
1558556935.1,286047000.9,N
1558556955.9,286047001.1,N
1558556975.7,286046998.4,N
1558556995.5,286046996.6,N
1558557015.4,286046998.9,N
1558557035.2,286046998.4,N
1558557055.1,286046996.9,N
1558557056.0,286046996.9,N
1558557075.8,286046996.7,N
1558557095.6,286046996.8,N
1558557115.5,286046999.1,N
1558557135.3,286046996.9,N
1558557155.1,286046997.3,N
1558557175.9,286046995.1,N
1558557195.7,286046995.1,N
1558557215.5,286046995.2,N
1558557235.4,286046995.2,N
1558557255.2,286046997.5,N
1558557275.1,286046995.8,N
1558557276.0,286046995.8,N
1558557295.8,286046992.7,N
1558557315.6,286046992.3,N
1558557335.5,286046996.2,N
1558557355.3,286046993.5,N
1558557405.2,286046990.9,E
1558557415.1,286046996.3,N
1558557435.8,286047001.1,P
1558557455.7,286047001.0,N
1558557475.5,286046999.2,N
1558557495.4,286046997.7,N
1558557515.2,286046995.0,N
1558557535.0,286046997.6,N
1558557535.9,286046997.6,N
1558557555.8,286046998.3,N
1558557575.6,286047000.3,N
1558557595.4,286047002.5,N
1558557615.3,286047002.5,N
1558557635.1,286047001.4,N
1558557655.8,286047000.6,N
1558557675.7,286047001.2,N
1558557695.5,286047002.4,N
1558557715.4,286047001.8,N
1558557735.2,286047003.1,N
1558557755.0,286047004.1,N
1558557755.9,286047004.1,N
1558557775.8,286047000.9,N
1558557795.6,286046998.7,N
1558557815.4,286047002.1,N
1558557835.3,286047002.4,N
1558557855.1,286047004.2,N
1558557875.9,286047002.5,N
1558557895.7,286046999.7,N
1558557915.5,286047002.7,N
1558557935.4,286047000.5,N
1558557955.2,286047000.5,N
1558557975.1,286047000.6,N
1558557976.0,286047000.6,N
1558557995.8,286047000.7,N
1558558015.6,286046996.6,N
1558558035.5,286046998.7,N
1558558055.3,286046999.4,N
1558558075.1,286047000.5,N
1558558095.9,286047001.6,N
1558558115.7,286047001.0,N
1558558135.6,286047000.2,N
1558558155.4,286047000.6,N
1558558175.2,286047000.8,N
1558558195.1,286046997.3,N
1558558196.0,286046997.3,N
1558558215.8,286046996.1,N
1558558235.6,286046995.4,N
1558558255.5,286046996.9,N
1558558275.3,286046997.2,N
1558558295.2,286047000.7,N
1558558315.9,286046998.7,N
1558558335.7,286046996.8,N
1558558355.6,286046998.7,N
1558558375.4,286047002.2,N
1558558395.2,286047000.4,N
1558558415.1,286047001.9,N
1558558416.0,286047001.9,N
1558558435.8,286047001.8,N
1558558455.7,286047000.1,N
1558558475.5,286047001.1,N
1558558495.3,286047002.3,N
1558558515.2,286047000.4,N
1558558535.0,286047000.3,N
1558558535.9,286047000.3,N
1558558555.7,286046999.8,N
1558558575.6,286047001.7,N
1558558595.4,286047003.4,N
1558558615.3,286047004.1,N
1558558635.1,286047003.1,N
1558558636.0,286047003.1,N
1558558655.8,286047003.5,N
1558558675.7,286047001.8,N
1558558695.5,286047002.0,N
1558558715.3,286047001.2,N
1558558735.2,286047000.1,N
1558558755.0,286047002.1,N
1558558755.9,286047002.1,N
1558558775.8,286047003.6,N
1558558795.6,286047001.4,N
